HAIYANG-2A

Last updated on Wed Oct 29 2025 00:02:30 GMT+0000 (Coordinated Universal Time)

1 37781U 11043A 25301.64281248 .00000007 00000+0 49761-4 0 9998 2 37781 99.3387 303.2693 0000962 139.3922 220.7302 13.78830133714778
UTC large
Height (km)
Speed (km/s)
/
Latitude / Longitude
Inclination (degrees)
Orbital Period (minutes)
Azimuth
Elevation
Range (km)
Doppler Factor

Next 0 passes for location: London (51.5072 / 0.1276)

Sorry there are no passes over London.